MIDAS 4 DEB, 195

Orbit data source: Space-Track

MIDAS 4 DEB, 195 is space debris in LEO originally from a launch on Sat, 21 Oct 1961 UTC launched from the Air Force Western Test Range (AFWTR). Debris objects in space refer to the collection of defunct objects orbiting the Earth. Examples of debris include non-operational satellites, rocket bodies, and fragments generated from explosions, collisions, or faulty payload assembly.

Loading next visibility...
Identifier
195, 1961-028D
Orbit
LEO
Country
Flag of USUS
Related business
Manufacturer
Unknown
Mission
Spacecraft
Bus & Motor
Unknown
Mass
~10 kg wet, ~10 kg dry
Launch date (UTC)
1961-10-21 (64 years ago)
Launch vehicle
Unknown
Launch site
Air Force Western Test Range (AFWTR)
Object type
Payload
Rocket body
Debris
Shape & HBR
Unknown shape, 1.1 m
Radar Cross Section
Medium (>0.1 m² and <1 m²)

Expand to show TLE details & history
Last TLE update: 1 day ago

TLE from 1 day ago
0 MIDAS 4 DEB
1   195U 61028D   26037.32455156  .00000012  00000-0  71262-2 0  9994
2   195  95.8391 176.9320 0127168 203.2985 156.2066  8.65622110 31702
Epoch: 2026-02-06T07:47Z
TLE epoch observation values (Epoch: 2026-02-06T07:47:21.254Z)
Latitude
-0.00003°
Longitude
-76.37061°
Altitude
3,760.455 km
Speed
6.234 km/s
True Right ascension
11h 47m 43s
True Declination
0° 00' 00"
Sunlit
Object was in daylight at epoch
Visualization orbit readout
Latitude
Unknown
Longitude
Unknown
Altitude
Unknown
Speed
Unknown
Apparent Right ascension
Unknown
Apparent Declination
Unknown
Sunlit
N/A
Visualization observer readout
Local Sidereal Time
15:24:54
Azimuth
Unknown
Elevation
Unknown
Doppler factor
Unknown
Orbital elements
Apogee altitude
3,766.712 km
Perigee altitude
3,511.932 km
Semi-major axis
10,017.459 km
Eccentricity
0.01272
Inclination
95.8391°
RAAN
176.932°
Arg. of periapsis
203.2985°
True anomaly
156.78606°
Mean anomaly
156.2066°
Eccentric anomaly
156.49717°
Mean motion
2.16475 °/min
Orbital period
166.3 mins
BSTAR
0.0071262
Loading maneuver chart data...
Computing Atmospheric mass density...
Loading historical data...
Loading historical data...
Loading historical data...
Loading historical data...
Loading historical data...
Loading historical data...
Loading historical data...

Documentation

Showing up to 5 results
|